Home > Weather > Anchorage > Past weeks

Flag for USA Weather for the Past 2 Weeks in Anchorage, Alaska, USA

Now
53 °F

Scattered clouds.


Feels Like: 48 °F
Forecast: 39 / 50 °F
Wind: 17 mph from Northeast

Location: Lake Hood Seaplane

Current Time: Apr 30, 2016 at 4:36:27 PM

Latest Report: Apr 30, 2016 at 3:53 PM


Visibility: 10 mi

Pressure: 29.38 "Hg

Humidity: 32%

Dew Point: 24 °F

Location of AnchorageLocation

Historic Weather in Anchorage — Graph

°F

Anchorage Temperature Yesterday

Maximum temperature yesterday: 50 °F (at 11:53 AM)
Minimum temperature yesterday: 42 °F (at 11:53 PM)
Average temperature yesterday: 46 °F

High & Low Weather Summary for the Past Weeks

 TemperatureHumidityPressure
High58 °F (Apr 21, 4:53 PM)89% (Apr 23, 6:53 AM)30.11 "Hg (Apr 23, 6:53 AM)
Low32 °F (Apr 17, 6:53 AM)27% (Apr 21, 3:53 PM)29.39 "Hg (Apr 30, 2:53 PM)
Average46 °F60%29.78 "Hg
* Reported Apr 15 2:53 PM — Apr 30 2:53 PM, Anchorage, Weather by CustomWeather, © 2016

Note: Actual official high and low records may vary slightly from our data, if they occured in-between our weather recording intervals... More about our weather records

Advertising

Anchorage Weather History for the Previous 24 Hours

Scroll right to see more
 ConditionsComfort  
Time TempWeatherWind HumidityBarometerVisibility
2:53 PM
Sat, Apr 30
51 °FOvercast.10 mph44%29.39 "Hg10 mi
1:53 PM51 °FOvercast.15 mph41%29.42 "Hg10 mi
12:53 PM49 °FOvercast.16 mph48%29.46 "Hg10 mi
11:53 AM50 °FPartly sunny.9 mph36%29.48 "Hg10 mi
10:53 AM46 °FPassing clouds.16 mph50%29.52 "Hg10 mi
9:53 AM45 °FSunny.17 mph58%29.56 "Hg10 mi
8:53 AM41 °FSunny.7 mph65%29.62 "Hg10 mi
7:53 AM39 °FSunny.3 mph76%29.65 "Hg10 mi
6:53 AM40 °FPartly sunny.No wind80%29.69 "Hg10 mi
5:53 AM40 °FOvercast.5 mph77%29.72 "Hg10 mi
4:53 AM41 °FOvercast.No wind74%29.75 "Hg10 mi
3:53 AM41 °FPassing clouds.No wind76%29.78 "Hg10 mi
2:53 AM40 °FOvercast.No wind77%29.81 "Hg10 mi
1:53 AM40 °FPassing clouds.3 mph77%29.83 "Hg10 mi
12:53 AM41 °FOvercast.5 mph74%29.84 "Hg10 mi
11:53 PM
Fri, Apr 29
42 °FPassing clouds.No wind68%29.85 "Hg10 mi
10:53 PM43 °FPassing clouds.No wind62%29.86 "Hg10 mi
9:53 PM44 °FSunny.10 mph60%29.87 "Hg10 mi
8:53 PM45 °FSunny.12 mph58%29.87 "Hg10 mi
7:53 PM46 °FSunny.9 mph56%29.87 "Hg10 mi
6:53 PM48 °FScattered clouds.9 mph52%29.87 "Hg10 mi
5:53 PM48 °FScattered clouds.8 mph52%29.87 "Hg10 mi
4:53 PM49 °FSunny.12 mph46%29.87 "Hg10 mi
Weather by CustomWeather, © 2016

See weather overviewHow to use our weather pages